Stations météo

Publicité
Aurillac, France (7549): Température de l'air & dewpoint: 14.04.2019 22:00:00 - 20.04.2019 22:00:00 (CEST)Aurillac, France (7549): Température de l'air 5cm: 14.04.2019 22:00:00 - 20.04.2019 22:00:00 (CEST)Aurillac, France (7549): Température de l'air -20cm & Température de l'air -100cm: 14.04.2019 22:00:00 - 20.04.2019 22:00:00 (CEST)Aurillac, France (7549): Vitesse du vent & gusts: 14.04.2019 22:00:00 - 20.04.2019 22:00:00 (CEST)Aurillac, France (7549): Direction du vent: 14.04.2019 22:00:00 - 20.04.2019 22:00:00 (CEST)Aurillac, France (7549): reduced air pressure: 14.04.2019 22:00:00 - 20.04.2019 22:00:00 (CEST)Aurillac, France (7549): visibility: 14.04.2019 22:00:00 - 20.04.2019 22:00:00 (CEST)Aurillac, France (7549): Ensoleillement: 14.04.2019 22:00:00 - 20.04.2019 22:00:00 (CEST)Aurillac, France (7549): Quantités de précipitations: 14.04.2019 22:00:00 - 20.04.2019 22:00:00 (CEST)
Date & Time tt [°C] td [°C] tt 5cm [°C] tt -20cm [°C] tt -100cm [°C] ff [km/h] ff [knt] fx [km/h] fx [knt] dd ppp [hPa] vv [km] sd [min] rr [mm]
20.04.2019 22:00:00 11,7 8,4 10,1 12,2 9,8 10 5 18 10 E 1021,8 13 0 0,2
20.04.2019 21:00:00 11,6 7,7 10,3 12,1 9,8 5 3 15 8 E 1022,0 42 7 0,0
20.04.2019 20:00:00 11,8 7,7 11,9 12,0 9,8 11 6 32 18 E 1021,5 50 18 0,0
20.04.2019 19:00:00 13,7 6,3 14,4 11,9 9,8 18 10 37 20 E 1020,9 49 4 0,0
20.04.2019 18:00:00 14,7 7,7 15,6 11,8 9,8 17 9 29 15 NNE 1021,0 51 0 0,0
20.04.2019 17:00:00 14,9 6,2 13,7 11,6 9,8 6 3 40 21 WNW 1021,4 56 0 0,0
20.04.2019 16:00:00 18,2 4,7 20,0 11,6 9,8 11 6 24 13 NNE 1020,3 20 5 0,0
20.04.2019 15:00:00 19,0 3,2 22,1 11,5 9,8 10 6 23 12 W 1020,8 20 52 0,0
20.04.2019 14:00:00 18,7 4,5 24,9 11,5 9,8 10 5 20 11 NW 1021,7 24 60 0,0
20.04.2019 13:00:00 18,2 2,9 24,9 11,5 9,8 8 4 15 8 W 1022,5 20 60 0,0
20.04.2019 12:00:00 18,0 1,0 19,4 11,5 9,8 3 2 16 9 SW 1023,2 55 36 0,0
20.04.2019 11:00:00 17,0 2,6 20,1 11,5 9,7 12 7 22 12 S 1023,9 46 60 0,0
20.04.2019 10:00:00 15,7 2,8 15,0 11,7 9,8 10 5 19 11 ESE 1024,3 35 57 0,0
20.04.2019 09:00:00 11,5 3,8 8,2 11,7 9,8 8 4 14 8 ESE 1025,6 44 50 0,0
20.04.2019 08:00:00 7,8 2,5 6,2 11,8 9,8 11 6 18 10 ESE 1026,7 51 4 0,0
20.04.2019 07:00:00 6,8 1,9 4,8 11,9 9,8 12 7 19 10 ESE 1026,8 50 0 0,0
20.04.2019 06:00:00 6,5 1,6 4,6 12,0 9,8 10 6 21 11 ESE 1026,8 50 0 0,0
20.04.2019 05:00:00 6,5 1,8 3,7 12,0 9,8 13 7 16 8 E 1027,3 50 0 0,0
20.04.2019 04:00:00 6,7 1,6 3,4 12,1 9,8 12 7 16 8 E 1027,4 55 0 0,0
20.04.2019 03:00:00 6,7 1,8 4,7 12,2 9,8 10 6 17 9 ESE 1027,7 56 0 0,0
20.04.2019 02:00:00 7,4 2,3 5,6 12,2 9,7 11 6 15 8 ESE 1028,0 54 0 0,0
20.04.2019 01:00:00 7,9 2,6 4,5 12,2 9,7 11 6 13 7 ESE 1028,3 51 0 0,0
20.04.2019 00:00:00 9,6 2,7 6,7 12,1 9,8 10 5 14 8 ESE 1027,9 55 0 0,0
19.04.2019 23:00:00 12,0 1,6 6,2 12,1 9,8 4 2 9 5 E 1027,1 59 0 0,0
19.04.2019 22:00:00 12,8 2,3 9,0 11,9 9,7 7 4 21 12 ESE 1026,6 60 0 0,0
19.04.2019 21:00:00 14,4 2,6 12,5 11,8 9,7 14 8 23 13 SSE 1025,6 60 17 0,0
19.04.2019 20:00:00 16,5 2,1 16,5 11,7 9,7 11 6 25 14 S 1024,5 59 60 0,0
19.04.2019 19:00:00 18,0 0,6 20,6 11,5 9,7 17 9 35 19 S 1023,5 60 60 0,0
19.04.2019 18:00:00 19,2 1,6 22,4 11,4 9,7 25 13 38 21 S 1022,8 38 60 0,0
19.04.2019 17:00:00 20,0 1,9 24,4 11,3 9,7 20 11 37 20 S 1022,4 39 60 0,0
19.04.2019 16:00:00 19,4 1,4 24,9 11,2 9,7 25 13 42 23 S 1022,6 32 60 0,0
19.04.2019 15:00:00 20,5 2,8 24,3 11,1 9,7 24 13 37 20 S 1022,5 19 60 0,0
19.04.2019 14:00:00 19,9 1,8 24,3 11,1 9,7 25 14 40 22 SSE 1022,6 30 60 0,0
19.04.2019 13:00:00 19,6 2,0 22,6 11,1 9,7 22 12 41 22 SSE 1022,8 32 60 0,0
19.04.2019 12:00:00 18,7 2,9 20,5 11,1 9,7 20 11 40 21 SE 1022,9 38 60 0,0
19.04.2019 11:00:00 17,7 3,6 19,0 11,1 9,7 19 11 44 24 SE 1022,9 45 60 0,0
19.04.2019 10:00:00 16,1 3,2 16,0 11,2 9,7 23 13 35 19 ESE 1022,9 20 60 0,0
19.04.2019 09:00:00 14,6 1,8 12,5 11,3 9,7 16 9 28 15 E 1022,6 20 60 0,0
19.04.2019 08:00:00 12,9 1,5 10,5 11,3 9,7 14 7 23 13 E 1022,4 42 32 0,0
19.04.2019 07:00:00 12,4 1,1 10,7 11,4 9,7 14 7 30 16 ESE 1021,9 46 0 0,0
19.04.2019 06:00:00 12,7 0,7 10,7 11,4 9,7 16 8 28 15 ESE 1021,1 52 0 0,0
19.04.2019 05:00:00 12,6 0,0 10,8 11,4 9,7 15 8 36 19 ESE 1020,9 57 0 0,0
19.04.2019 04:00:00 13,3 -1,9 11,4 11,5 9,7 19 10 38 20 ESE 1020,4 60 0 0,0
19.04.2019 03:00:00 13,1 -2,4 11,3 11,5 9,7 19 10 41 22 E 1020,4 60 0 0,0
19.04.2019 02:00:00 13,2 -2,7 11,0 11,5 9,7 19 10 32 17 E 1020,4 60 0 0,0
19.04.2019 01:00:00 12,7 -1,6 10,1 11,5 9,7 19 10 31 17 E 1020,5 60 0 0,0
19.04.2019 00:00:00 12,3 0,7 10,6 11,5 9,7 13 7 23 13 ESE 1020,6 53 0 0,0
18.04.2019 23:00:00 12,6 0,3 10,9 11,4 9,6 12 7 24 13 ESE 1020,6 58 0 0,0
18.04.2019 22:00:00 13,6 1,6 11,5 11,3 9,7 14 8 23 12 E 1019,9 55 0 0,0
18.04.2019 21:00:00 14,0 2,2 12,6 11,2 9,7 14 7 23 12 ESE 1019,4 58 0 0,0
18.04.2019 20:00:00 15,6 2,0 14,5 11,1 9,7 15 8 29 16 SE 1018,1 60 0 0,0
18.04.2019 19:00:00 16,6 1,8 16,7 11,0 9,7 14 8 40 22 SSE 1017,4 45 28 0,0
18.04.2019 18:00:00 17,4 2,2 19,6 10,8 9,6 21 12 40 22 SSE 1017,0 60 60 0,0
18.04.2019 17:00:00 17,9 3,7 20,5 10,8 9,7 22 12 49 27 SE 1016,7 20 60 0,0
18.04.2019 16:00:00 17,6 1,9 21,2 10,6 9,6 30 16 54 29 SSE 1017,1 25 60 0,0
18.04.2019 15:00:00 17,9 1,8 21,8 10,6 9,7 29 16 57 31 SE 1016,8 20 60 0,0
18.04.2019 14:00:00 18,4 4,2 22,2 10,5 9,6 29 16 41 22 SSE 1016,0 20 60 0,0
18.04.2019 13:00:00 18,4 3,4 20,4 10,5 9,7 24 13 42 23 SE 1015,8 48 60 0,0
18.04.2019 12:00:00 17,5 2,6 19,6 10,5 9,6 22 12 41 22 SE 1015,7 37 60 0,0
18.04.2019 11:00:00 16,3 1,9 17,9 10,5 9,6 24 13 44 24 SE 1016,0 51 60 0,0
18.04.2019 10:00:00 14,7 2,6 13,9 10,6 9,6 19 10 29 16 ESE 1016,3 60 60 0,0
18.04.2019 09:00:00 12,4 2,3 10,9 10,6 9,6 16 9 32 17 ESE 1016,7 60 48 0,0
18.04.2019 08:00:00 11,2 1,7 9,4 10,7 9,7 21 11 33 18 ESE 1016,5 60 37 0,0
18.04.2019 07:00:00 10,8 1,9 9,0 10,7 9,6 20 11 32 17 ESE 1016,0 60 0 0,0
18.04.2019 06:00:00 10,3 1,9 8,1 10,8 9,7 18 10 27 15 ESE 1016,0 60 0 0,0
18.04.2019 05:00:00 9,8 1,9 8,0 10,8 9,6 14 8 26 14 ESE 1016,5 60 0 0,0
18.04.2019 04:00:00 10,2 1,8 8,9 10,9 9,6 16 9 31 17 ESE 1016,5 60 0 0,0
18.04.2019 03:00:00 10,3 1,1 9,1 10,9 9,6 21 11 32 17 ESE 1016,3 60 0 0,0
18.04.2019 02:00:00 10,6 0,6 9,3 10,9 9,6 21 11 33 18 ESE 1016,6 60 0 0,0
18.04.2019 01:00:00 10,6 0,6 9,4 10,8 9,6 16 9 29 16 ESE 1017,3 60 0 0,0
18.04.2019 00:00:00 11,3 0,7 10,0 10,8 9,6 18 10 31 17 ESE 1016,9 60 0 0,0
17.04.2019 23:00:00 11,3 1,0 10,3 10,8 9,6 16 9 28 15 ESE 1017,0 60 0 0,0
17.04.2019 22:00:00 11,9 2,6 11,0 10,6 9,6 19 11 35 19 ESE 1016,7 60 0 0,0
17.04.2019 21:00:00 13,0 3,9 11,7 10,6 9,6 21 12 34 18 ESE 1015,9 60 0 0,0
17.04.2019 20:00:00 13,6 5,7 12,7 10,4 9,6 14 8 28 15 SSE 1015,4 60 0 0,0
17.04.2019 19:00:00 14,8 6,1 15,1 10,2 9,6 17 9 37 20 SSE 1014,8 57 0 0,0
17.04.2019 18:00:00 15,7 6,1 17,3 10,1 9,6 22 12 44 24 S 1014,9 48 42 0,0
17.04.2019 17:00:00 17,4 6,9 21,9 10,0 9,6 22 12 43 23 S 1014,0 31 60 0,0
17.04.2019 16:00:00 17,5 7,0 20,9 9,9 9,6 28 15 42 23 S 1014,3 20 57 0,0
17.04.2019 15:00:00 17,3 7,1 21,8 9,8 9,6 27 14 39 21 S 1014,6 19 60 0,0
17.04.2019 14:00:00 17,1 6,3 21,2 9,7 9,6 24 13 37 20 S 1015,0 33 60 0,0
17.04.2019 13:00:00 16,4 6,2 20,2 9,7 9,6 20 11 40 21 SSE 1015,5 20 60 0,0
17.04.2019 12:00:00 15,4 5,3 16,6 9,7 9,6 22 12 34 18 SE 1015,9 51 53 0,0
17.04.2019 11:00:00 13,7 5,1 14,6 9,8 9,6 18 10 31 17 ESE 1016,6 51 60 0,0
17.04.2019 10:00:00 11,6 4,6 10,7 9,9 9,6 21 12 32 17 E 1016,9 59 46 0,0
17.04.2019 09:00:00 10,0 4,4 8,2 9,9 9,6 18 10 32 17 ESE 1017,6 58 12 0,0
17.04.2019 08:00:00 8,7 4,5 6,6 10,0 9,6 18 10 31 17 ESE 1018,1 60 0 0,0
17.04.2019 07:00:00 7,8 4,4 3,8 10,0 9,6 16 9 24 13 ESE 1018,3 60 0 0,0
17.04.2019 06:00:00 5,2 3,7 3,3 10,1 9,6 10 5 14 8 ESE 1019,3 60 0 0,0
17.04.2019 05:00:00 5,0 3,0 3,1 10,2 9,6 13 7 18 10 ESE 1019,7 60 0 0,0
17.04.2019 04:00:00 4,5 2,8 1,8 10,2 9,6 14 8 18 10 E 1020,7 60 0 0,0
17.04.2019 03:00:00 3,7 2,4 1,4 10,3 9,6 9 5 13 7 ESE 1021,7 58 0 0,0
17.04.2019 02:00:00 4,5 3,3 2,5 10,3 9,6 9 5 13 7 ESE 1021,7 51 0 0,0
17.04.2019 01:00:00 5,2 4,0 2,8 10,3 9,6 11 6 15 8 E 1021,6 49 0 0,0
17.04.2019 00:00:00 5,2 4,2 2,4 10,3 9,6 10 6 12 7 E 1021,9 20 0 0,0
16.04.2019 23:00:00 6,1 4,7 3,9 10,3 9,6 10 5 12 7 E 1021,7 31 0 0,0
16.04.2019 22:00:00 7,6 5,6 3,6 10,2 9,6 7 4 9 5 ESE 1021,3 11 0 0,0
16.04.2019 21:00:00 9,4 5,9 3,8 10,1 9,6 3 2 7 4 S 1020,3 60 13 0,0
16.04.2019 20:00:00 11,7 6,4 11,7 10,1 9,6 0 0 11 6 N 1019,2 60 60 0,0
16.04.2019 19:00:00 13,4 7,6 13,6 10,0 9,6 4 2 11 6 SSW 1018,8 59 16 0,0
16.04.2019 18:00:00 12,1 7,4 11,2 10,0 9,5 4 2 16 8 W 1019,1 20 17 0,0
16.04.2019 17:00:00 10,7 7,2 12,1 9,9 9,5 10 5 19 10 W 1019,6 49 0 0,0
16.04.2019 16:00:00 11,0 6,9 13,0 9,9 9,6 14 7 22 12 WSW 1019,8 20 0 0,0
16.04.2019 15:00:00 10,6 7,5 12,5 9,9 9,5 13 7 21 11 SW 1019,8 20 0 0,0
16.04.2019 14:00:00 10,6 8,4 10,8 9,9 9,6 13 7 24 13 WSW 1019,6 20 0 0,0
16.04.2019 13:00:00 9,9 8,5 9,9 9,9 9,5 12 7 18 10 SW 1019,7 19 3 0,2
16.04.2019 12:00:00 8,2 7,4 8,5 10,0 9,5 7 4 13 7 SSW 1020,1 6 0 0,0
16.04.2019 11:00:00 7,4 6,8 7,7 10,0 9,5 5 3 10 5 S 1020,1 3,4 0 0,2
16.04.2019 10:00:00 6,9 6,3 6,9 10,1 9,5 5 3 11 6 SE 1019,9 1,9 0 0,2
16.04.2019 09:00:00 6,4 5,8 6,3 10,1 9,5 7 4 13 7 ESE 1019,2 2,6 0 0,6
16.04.2019 08:00:00 6,2 5,6 6,2 10,1 9,5 7 4 10 6 SE 1019,0 4,5 0 0,2
16.04.2019 07:00:00 6,3 5,6 6,1 10,2 9,6 7 4 11 6 ESE 1018,4 3,0 0 0,2
16.04.2019 06:00:00 6,6 5,4 6,1 10,2 9,5 5 3 21 12 SSE 1018,2 4,9 0 0,8
16.04.2019 05:00:00 6,7 5,2 6,0 10,3 9,5 9 5 16 9 E 1017,7 8 0 1,4
16.04.2019 04:00:00 7,0 4,6 5,8 10,3 9,5 8 5 24 13 ESE 1017,7 12 0 0,4
16.04.2019 03:00:00 7,3 3,7 5,8 10,3 9,5 15 8 26 14 SE 1017,4 15 0 0,4
16.04.2019 02:00:00 8,7 2,3 7,9 10,3 9,5 7 4 20 11 SE 1017,7 59 0 0,0
16.04.2019 01:00:00 9,5 1,4 8,8 10,3 9,5 10 5 34 18 SSE 1017,9 60 0 0,0
16.04.2019 00:00:00 10,5 -0,1 9,9 10,3 9,5 13 7 32 17 SSW 1017,1 60 0 0,0
15.04.2019 23:00:00 11,1 -2,0 10,4 10,3 9,5 22 12 44 24 ESE 1014,4 60 0 0,0
15.04.2019 22:00:00 11,0 -1,8 10,4 10,2 9,5 21 12 43 23 ESE 1013,6 60 0 0,0
15.04.2019 21:00:00 11,1 -1,7 10,4 10,1 9,5 28 15 44 24 SE 1013,3 60 0 0,0
15.04.2019 20:00:00 11,3 -0,5 10,8 10,0 9,5 23 12 47 25 SE 1013,1 60 0 0,0
15.04.2019 19:00:00 12,1 0,2 12,0 9,9 9,5 24 13 46 25 SE 1012,4 56 0 0,0
15.04.2019 18:00:00 13,6 -0,8 14,3 9,7 9,5 23 12 45 24 SSE 1012,1 45 0 0,0
15.04.2019 17:00:00 15,6 -2,4 16,9 9,6 9,5 22 12 38 20 SSE 1011,2 36 0 0,0
15.04.2019 16:00:00 17,6 -7,8 20,6 9,5 9,5 21 11 39 21 SSE 1011,1 60 60 0,0
15.04.2019 15:00:00 17,2 -8,9 18,6 9,5 9,5 17 9 29 16 SE 1011,4 20 34 0,0
15.04.2019 14:00:00 16,0 -8,4 19,6 9,4 9,5 14 8 29 15 SSE 1012,6 52 39 0,0
15.04.2019 13:00:00 15,5 -6,8 19,5 9,5 9,5 12 6 24 13 SE 1013,3 60 60 0,0
15.04.2019 12:00:00 13,7 -10,2 17,4 9,5 9,5 14 8 25 13 SE 1014,4 20 60 0,0
15.04.2019 11:00:00 11,7 -8,8 13,4 9,6 9,5 16 8 29 16 SE 1015,5 20 60 0,0
15.04.2019 10:00:00 9,3 -8,8 9,3 9,7 9,5 19 10 27 14 ESE 1016,0 20 60 0,0
15.04.2019 09:00:00 5,8 -8,9 3,4 9,8 9,5 13 7 21 11 ESE 1017,6 19 60 0,0
15.04.2019 08:00:00 2,3 -7,1 -1,2 9,9 9,5 11 6 18 10 ESE 1019,2 25 32 0,0
15.04.2019 07:00:00 0,1 -6,8 -1,4 10,0 9,5 10 5 18 10 ESE 1019,9 31 0 0,0
15.04.2019 06:00:00 1,2 -6,6 0,0 10,1 9,5 11 6 18 10 ESE 1019,6 29 0 0,0
15.04.2019 05:00:00 1,7 -6,2 -0,1 10,1 9,5 13 7 17 9 E 1019,8 27 0 0,0
15.04.2019 04:00:00 1,7 -5,9 0,4 10,2 9,5 11 6 19 11 ESE 1020,0 27 0 0,0
15.04.2019 03:00:00 2,2 -5,9 0,8 10,3 9,5 12 6 18 10 ESE 1020,4 28 0 0,0
15.04.2019 02:00:00 2,4 -6,0 0,2 10,3 9,5 11 6 16 9 ESE 1020,6 31 0 0,0
15.04.2019 01:00:00 2,7 -5,9 0,6 10,3 9,5 10 5 18 10 ESE 1020,6 33 0 0,0
15.04.2019 00:00:00 3,1 -5,8 -0,3 10,3 9,5 10 5 14 8 E 1020,4 33 0 0,0
14.04.2019 23:00:00 4,1 -6,2 0,7 10,2 9,5 7 4 12 7 SE 1020,3 39 0 0,0
14.04.2019 22:00:00 5,6 -5,7 1,6 10,1 9,5 9 5 13 7 SE 1019,1 48 0 0,0

tt = Température de l'air
td = dewpoint
tt 5cm = Température de l'air 5cm
tt -20cm = Température de l'air -20cm
tt -100cm = Température de l'air -100cm
ff = Vitesse du vent
fx = gusts
dd = Direction du vent
ppp = reduced air pressure
vv = visibility
sd = Ensoleillement
rr = Quantités de précipitations

stations d'obs. à proximité